DW0231 Weather Reports


Display with metric or nautical units.
time (UTC)temp
F
wind
direction
speed
MPH
gust
MPH
rain 1hr
in
rain 24hr
in
rain mn
in
humidity
%
barometer
mb
20260904121621 72 213 4.0 0.0 0.00 0.00 0.00 23 1003.1
20260904120115 72 194 4.0 0.0 0.00 0.00 0.00 22 1002.9
20260904114523 73 206 4.0 0.0 0.00 0.00 0.00 21 1002.6
20260904113027 73 202 6.0 0.0 0.00 0.00 0.00 21 1002.8
20260904111611 73 200 3.0 0.0 0.00 0.00 0.00 21 1002.8
20260904110002 73 207 5.0 0.0 0.00 0.00 0.00 20 1002.8
20260904104607 74 203 6.0 0.0 0.00 0.00 0.00 19 1002.8
20260904103021 74 267 6.0 0.0 0.00 0.00 0.00 18 1002.8
20260904101627 74 199 7.0 0.0 0.00 0.00 0.00 17 1002.6
20260904100112 74 216 5.0 0.0 0.00 0.00 0.00 17 1002.3
20260904094514 74 209 5.0 0.0 0.00 0.00 0.00 17 1002.2
20260904093131 74 201 5.0 0.0 0.00 0.00 0.00 16 1002.2
20260904091616 75 206 5.0 0.0 0.00 0.00 0.00 16 1002.2
20260904090009 75 215 5.0 0.0 0.00 0.00 0.00 15 1002.1
20260904084510 75 221 3.0 0.0 0.00 0.00 0.00 16 1002.1
20260904083034 76 227 5.0 0.0 0.00 0.00 0.00 15 1002.1
20260904081505 76 190 4.0 0.0 0.00 0.00 0.00 15 1001.7
20260904080118 76 215 3.0 0.0 0.00 0.00 0.00 16 1001.8
20260904074551 76 209 4.0 0.0 0.00 0.00 0.00 16 1001.9
20260904073134 76 185 3.0 0.0 0.00 0.00 0.00 16 1001.8
20260904071600 77 221 3.0 0.0 0.00 0.00 0.00 16 1001.9
20260904070127 77 199 5.0 0.0 0.00 0.00 0.00 16 1002.0
20260904064616 77 218 4.0 0.0 0.00 0.00 0.00 17 1001.9
20260904063107 77 234 4.0 0.0 0.00 0.00 0.00 17 1001.9
20260904061510 77 187 2.0 0.0 0.00 0.00 0.00 17 1002.0
20260904060134 77 196 3.0 0.0 0.00 0.00 0.00 17 1001.9
20260904054637 76 249 3.0 0.0 0.00 0.00 0.00 18 1001.9
20260904053035 77 215 3.0 0.0 0.00 0.00 0.00 18 1001.7
20260904051631 77 194 3.0 0.0 0.00 0.00 0.00 18 1001.8
20260904050114 77 205 3.0 0.0 0.00 0.00 0.00 18 1001.8
20260904044549 78 200 4.0 0.0 0.00 0.00 0.00 17 1001.9
20260904043036 78 219 4.0 0.0 0.00 0.00 0.00 17 1001.9
20260904041621 78 212 2.0 0.0 0.00 0.00 0.00 18 1001.9
20260904040033 78 195 2.0 0.0 0.00 0.00 0.00 18 1001.8
20260904034506 78 213 2.0 0.0 0.00 0.00 0.00 18 1001.7
20260904033110 77 210 3.0 0.0 0.00 0.00 0.00 19 1001.7
20260904031541 77 184 2.0 0.0 0.00 0.00 0.00 19 1001.8
20260904030122 77 185 2.0 0.0 0.00 0.00 0.00 20 1001.7
20260904024619 78 209 2.0 0.0 0.00 0.00 0.00 20 1001.7
20260904023057 78 202 1.0 0.0 0.00 0.00 0.00 19 1001.5
20260904021541 78 199 2.0 0.0 0.00 0.00 0.00 20 1001.7
20260904020127 78 209 1.0 0.0 0.00 0.00 0.00 21 1001.6
20260904014617 80 210 2.0 0.0 0.00 0.00 0.00 20 1001.5
20260904013128 80 197 4.0 0.0 0.00 0.00 0.00 19 1001.6
20260904011558 81 208 3.0 0.0 0.00 0.00 0.00 20 1001.7
20260904010128 81 204 6.0 0.0 0.00 0.00 0.00 18 1001.7
20260904004549 81 225 4.0 0.0 0.00 0.00 0.00 18 1001.6
20260904003021 82 202 5.0 0.0 0.00 0.00 0.00 18 1001.6
20260904001626 82 216 5.0 0.0 0.00 0.00 0.00 18 1001.8
20260904000056 82 198 4.0 0.0 0.00 0.00 0.00 18 1001.9
20260903234542 83 239 6.0 0.0 0.00 0.00 0.00 16 1002.0
20260903233124 84 217 5.0 0.0 0.00 0.00 0.00 17 1002.1
20260903231613 84 227 7.0 0.0 0.00 0.00 0.00 16 1002.2
20260903230028 84 209 6.0 0.0 0.00 0.00 0.00 16 1002.2
20260903224615 84 212 6.0 0.0 0.00 0.00 0.00 16 1002.6
20260903223103 84 226 5.0 0.0 0.00 0.00 0.00 16 1002.7
20260903221636 85 185 5.0 0.0 0.00 0.00 0.00 17 1002.9
20260903220047 84 184 5.0 0.0 0.00 0.00 0.00 18 1003.3
20260903214516 84 200 5.0 0.0 0.00 0.00 0.00 16 1003.5
20260903213120 83 78 5.0 0.0 0.00 0.00 0.00 16 1003.6
20260903211510 83 174 4.0 0.0 0.00 0.00 0.00 17 1003.9
20260903210117 83 258 5.0 0.0 0.00 0.00 0.00 17 1004.0
20260903204552 82 188 5.0 0.0 0.00 0.00 0.00 16 1004.4
20260903203124 82 195 4.0 0.0 0.00 0.00 0.00 18 1004.8
20260903201605 82 190 5.0 0.0 0.00 0.00 0.00 19 1005.0
20260903200013 81 218 6.0 0.0 0.00 0.00 0.00 19 1005.1
20260903194626 81 222 4.0 0.0 0.00 0.00 0.00 18 1005.0
20260903193012 80 190 5.0 0.0 0.00 0.00 0.00 18 1005.6
20260903191633 79 209 5.0 0.0 0.00 0.00 0.00 20 1005.8
20260903190121 79 195 5.0 0.0 0.00 0.00 0.00 19 1006.0
20260903184515 78 232 5.0 0.0 0.00 0.00 0.00 20 1006.1
20260903183108 78 194 6.0 0.0 0.00 0.00 0.00 20 1006.3
20260903181544 77 236 6.0 0.0 0.00 0.00 0.00 20 1006.6
20260903180127 77 186 6.0 0.0 0.00 0.00 0.00 20 1006.6
20260903174622 76 202 5.0 0.0 0.00 0.00 0.00 20 1007.0
20260903173112 76 196 4.0 0.0 0.00 0.00 0.00 20 1007.0
20260903171530 75 230 6.0 0.0 0.00 0.00 0.00 20 1007.0
20260903170029 75 195 6.0 0.0 0.00 0.00 0.00 21 1006.9
20260903164508 74 214 6.0 0.0 0.00 0.00 0.00 20 1006.9
20260903163107 74 209 5.0 0.0 0.00 0.00 0.00 20 1006.9
20260903161625 73 192 5.0 0.0 0.00 0.00 0.00 21 1006.7
20260903160007 69 217 2.0 0.0 0.00 0.00 0.00 26 1006.7
20260903154616 67 202 2.0 0.0 0.00 0.00 0.00 36 1006.7
20260903153001 64 215 0.0 0.0 0.00 0.00 0.00 38 1006.9
20260903151617 61 214 0.0 0.0 0.00 0.00 0.00 41 1007.2
20260903150037 58 215 0.0 0.0 0.00 0.00 0.00 50 1007.0
20260903144507 55 215 0.0 0.0 0.00 0.00 0.00 52 1006.9
20260903143135 54 214 0.0 0.0 0.00 0.00 0.00 54 1006.9
20260903141621 53 215 0.0 0.0 0.00 0.00 0.00 56 1006.8
20260903140042 53 214 0.0 0.0 0.00 0.00 0.00 55 1006.8
20260903134629 53 215 0.0 0.0 0.00 0.00 0.00 52 1006.6
20260903133043 54 215 0.0 0.0 0.00 0.00 0.00 51 1006.4
20260903131624 55 215 0.0 0.0 0.00 0.00 0.00 47 1006.2
20260903130130 55 215 0.0 0.0 0.00 0.00 0.00 48 1005.9
20260903124507 55 214 0.0 0.0 0.00 0.00 0.00 49 1005.7
20260903123111 55 215 0.0 0.0 0.00 0.00 0.00 48 1005.7